TimeCDT,TemperatureF,Dew PointF,Humidity,Sea Level PressureIn,VisibilityMPH,Wind Direction,Wind SpeedMPH,Gust SpeedMPH,PrecipitationIn,Events,Conditions,WindDirDegrees,DateUTC
12:55 AM,66.9,59.0,76,30.11,10.0,East,4.6,-,N/A,,Clear,90,2013-07-15 05:55:00
1:55 AM,63.0,59.0,87,30.12,10.0,Calm,Calm,-,N/A,,Clear,0,2013-07-15 06:55:00
2:55 AM,64.9,57.9,78,30.13,10.0,Calm,Calm,-,N/A,,Clear,0,2013-07-15 07:55:00
3:55 AM,61.0,57.9,90,30.12,10.0,Calm,Calm,-,N/A,,Clear,0,2013-07-15 08:55:00
4:55 AM,62.1,57.9,86,30.10,10.0,Calm,Calm,-,N/A,,Clear,0,2013-07-15 09:55:00
5:55 AM,60.1,57.0,90,30.12,7.0,Calm,Calm,-,N/A,,Clear,0,2013-07-15 10:55:00
6:55 AM,61.0,57.9,90,30.13,5.0,Calm,Calm,-,N/A,,Clear,0,2013-07-15 11:55:00
7:55 AM,66.0,61.0,84,30.14,6.0,Calm,Calm,-,N/A,,Haze,0,2013-07-15 12:55:00
8:55 AM,71.1,63.0,75,30.15,9.0,ESE,6.9,-,N/A,,Clear,110,2013-07-15 13:55:00
9:55 AM,75.9,64.9,69,30.15,10.0,SE,8.1,-,N/A,,Clear,130,2013-07-15 14:55:00
10:55 AM,80.1,64.9,60,30.15,10.0,ESE,9.2,-,N/A,,Clear,120,2013-07-15 15:55:00
11:55 AM,82.0,62.1,51,30.14,10.0,East,5.8,-,N/A,,Clear,80,2013-07-15 16:55:00
12:55 PM,84.9,57.9,40,30.13,10.0,ESE,9.2,-,N/A,,Clear,110,2013-07-15 17:55:00
1:55 PM,84.9,57.0,38,30.12,10.0,East,10.4,-,N/A,,Scattered Clouds,100,2013-07-15 18:55:00
2:55 PM,87.1,57.9,37,30.09,10.0,East,11.5,18.4,N/A,,Partly Cloudy,100,2013-07-15 19:55:00
3:55 PM,88.0,57.9,36,30.08,10.0,ESE,10.4,-,N/A,,Scattered Clouds,120,2013-07-15 20:55:00
4:55 PM,84.9,59.0,41,30.08,10.0,SE,4.6,-,N/A,,Mostly Cloudy,130,2013-07-15 21:55:00
5:55 PM,75.0,68.0,79,30.10,10.0,Calm,Calm,-,0.01,,Overcast,0,2013-07-15 22:55:00
6:55 PM,75.9,68.0,76,30.10,10.0,SW,4.6,-,N/A,,Mostly Cloudy,220,2013-07-15 23:55:00
7:55 PM,72.0,64.9,78,30.12,10.0,South,11.5,-,N/A,,Overcast,180,2013-07-16 00:55:00
8:55 PM,71.1,64.9,81,30.13,10.0,Calm,Calm,-,N/A,,Scattered Clouds,0,2013-07-16 01:55:00
9:55 PM,66.9,64.9,93,30.14,10.0,SE,3.5,-,N/A,,Clear,130,2013-07-16 02:55:00
10:55 PM,68.0,64.9,90,30.16,10.0,ESE,3.5,-,N/A,,Clear,110,2013-07-16 03:55:00
11:55 PM,64.9,64.0,97,30.17,10.0,SSE,3.5,-,N/A,,Clear,150,2013-07-16 04:55:00